Weather History for KNKX - November, 2012

Change the Weather History Date:

Thursday, November 1, 2012

  Actual Average Record
Temperature  
Mean Temperature 63 °F -  
Max Temperature 72 °F 68 °F 90 °F (1997)
Min Temperature 55 °F 49 °F 44 °F (1996)
Degree Days  
Heating Degree Days 2    
Growing Degree Days 13 (Base 50)    
Moisture  
Dew Point 52 °F    
Average Humidity 69    
Maximum Humidity 80    
Minimum Humidity 51    
Precipitation  
Precipitation 0.00 in - - ()
Sea Level Pressure  
Sea Level Pressure 29.99 in    
Wind  
Wind Speed 3 mph (WNW)    
Max Wind Speed 10 mph    
Max Gust Speed -    
Visibility 10 miles    
Events      
Averages and records for this station are not official NWS values.
T = Trace of Precipitation, MM = Missing Value Source: NWS Daily Summary

Daily Weather History Graph

Daily Weather History Graph

Search for Another Location

Airport or City:

Trip Planner

Search our weather history database for the weather conditions in past years. The results will help you decide how hot, cold, wet, or windy it might be!

Date:

Astronomy

Nov. 01, 2012 Rise Set
Actual Time 7:06 AM PDT 5:56 PM PDT
Civil Twilight 6:41 AM PDT 6:22 PM PDT
Nautical Twilight 6:12 AM PDT 6:51 PM PDT
Astronomical Twilight 5:43 AM PDT 7:20 PM PDT
Moon 8:04 PM PDT (11/1) 9:36 AM PDT (11/1)
Length of Visible Light 11h 41m
Length of Day
10h 49m
Waning Gibbous, 92% of the Moon is Illuminated
Nov 1
Waning Gibbous
Nov 6
Last Quarter
Nov 13
New
Nov 20
First Quarter
Nov 28
Full

Hourly Weather History & Observations

Time (PDT) Temp. Dew Point Humidity Pressure Visibility Wind Dir Wind Speed Gust Speed Precip Events Conditions
12:55 AM 62.1 °F 54.0 °F 75% 30.00 in 10.0 mi Calm Calm - N/A   Overcast
1:55 AM 61.0 °F 54.0 °F 78% 29.99 in 10.0 mi Calm Calm - N/A   Overcast
2:55 AM 61.0 °F 54.0 °F 78% 29.99 in 10.0 mi Calm Calm - N/A   Overcast
3:55 AM 61.0 °F 54.0 °F 78% 29.97 in 10.0 mi ENE 3.5 mph - N/A   Overcast
4:55 AM 61.0 °F 53.1 °F 75% 29.98 in 10.0 mi Calm Calm - N/A   Overcast
6:55 AM 60.1 °F 52.0 °F 75% 30.00 in 7.0 mi Calm Calm - N/A   Overcast
7:55 AM 61.0 °F 52.0 °F 72% 30.01 in 9.0 mi East 3.5 mph - N/A   Overcast
8:48 AM 60.8 °F 51.8 °F 72% 30.02 in 10.0 mi North 3.5 mph - N/A   Overcast
8:55 AM 61.0 °F 52.0 °F 72% 30.01 in 10.0 mi North 3.5 mph - N/A   Mostly Cloudy
9:37 AM 62.6 °F 51.8 °F 68% 30.02 in 8.0 mi Calm Calm - N/A   Mostly Cloudy
9:55 AM 63.0 °F 51.1 °F 65% 30.01 in 8.0 mi Calm Calm - N/A   Mostly Cloudy
10:15 AM 64.4 °F 51.8 °F 64% 30.02 in 9.0 mi WNW 4.6 mph - N/A   Scattered Clouds
10:55 AM 66.9 °F 51.1 °F 57% 30.01 in 10.0 mi West 4.6 mph - N/A   Scattered Clouds
11:55 AM 68.0 °F 52.0 °F 56% 30.01 in 10.0 mi WNW 5.8 mph - N/A   Scattered Clouds
12:55 PM 69.1 °F 52.0 °F 54% 29.98 in 10.0 mi NW 6.9 mph - N/A   Scattered Clouds
1:55 PM 70.0 °F 51.1 °F 51% 29.95 in 10.0 mi North 4.6 mph - N/A   Scattered Clouds
2:55 PM 71.1 °F 52.0 °F 51% 29.94 in 10.0 mi West 8.1 mph - N/A   Scattered Clouds
3:55 PM 66.9 °F 53.1 °F 61% 29.95 in 10.0 mi West 10.4 mph - N/A   Mostly Cloudy
4:55 PM 64.0 °F 53.1 °F 67% 29.95 in 10.0 mi WNW 8.1 mph - N/A   Mostly Cloudy
5:55 PM 62.1 °F 53.1 °F 72% 29.96 in 10.0 mi West 6.9 mph - N/A   Mostly Cloudy
6:35 PM 62.6 °F 53.6 °F 72% 29.98 in 10.0 mi West 4.6 mph - N/A   Mostly Cloudy
6:55 PM 61.0 °F 52.0 °F 72% 29.97 in 10.0 mi WNW 3.5 mph - N/A   Mostly Cloudy
7:55 PM 59.0 °F 51.1 °F 75% 29.98 in 10.0 mi West 4.6 mph - N/A   Mostly Cloudy
8:55 PM 55.9 °F 50.0 °F 80% 29.98 in 10.0 mi WSW 4.6 mph - N/A   Mostly Cloudy
9:55 PM 61.0 °F 53.1 °F 75% 29.98 in 10.0 mi West 3.5 mph - N/A   Overcast
10:55 PM 61.0 °F 53.1 °F 75% 29.99 in 10.0 mi SSW 3.5 mph - N/A   Overcast
11:55 PM 61.0 °F 52.0 °F 72% 29.99 in 10.0 mi Calm Calm - N/A   Overcast